Hourly Data Report for August 03, 2015

All times are specified in Local Standard Time (LST). Add 1 hour to adjust for Daylight Saving Time where and when it is observed.

Metadata including Station Name, Province, Latitude, Longitude, Elevation, Climate ID, WMO ID, TC ID
GRAND ETANG
NOVA SCOTIA
Latitude: 46°33'00.000" N Longitude: 61°03'00.000" W Elevation: 12.80 m
Climate ID: 8201969 WMO ID: TC ID: WZQ
Hourly Data Report for August 3, 2015
Temp Definition
°C

Dew Point Temp Definition
°C

Rel Hum Definition
%

Wind Dir Definition
10's deg
Wind Spd Definition
km/h

Visibility Definition
km

Stn Press Definition
kPa

Hmdx Definition

Wind Chill Definition

Weather Definition

00:00 18.9 LegendMM 72 16 15 100.93 LegendNANA
01:00 19.0 LegendMM 71 16 15 100.93 LegendNANA
02:00 18.3 LegendMM 74 16 15 100.94 LegendNANA
03:00 18.1 LegendMM 76 15 14 100.96 LegendNANA
04:00 17.6 LegendMM 77 15 13 101.00 LegendNANA
05:00 18.0 LegendMM 75 15 14 101.01 LegendNANA
06:00 19.0 LegendMM 71 15 13 101.08 LegendNANA
07:00 20.9 LegendMM 66 18 14 101.18 LegendNANA
08:00 21.9 LegendMM 64 20 20 101.23 LegendNANA
09:00 22.7 LegendMM 63 20 16 101.23 LegendNANA
10:00 23.1 LegendMM 62 21 15 101.22 LegendNANA
11:00 23.7 LegendMM 60 21 15 101.21 LegendNANA
12:00 23.7 LegendMM 64 22 20 101.21 LegendNANA
13:00 24.8 LegendMM 62 22 17 101.20 LegendNANA
14:00 25.5 LegendMM 52 22 18 101.21 LegendNANA
15:00 26.9 LegendMM 50 22 11 101.17 LegendNANA
16:00 28.3 LegendMM 41 23 6 101.10 LegendNANA
17:00 27.4 LegendMM 45 20 9 101.06 LegendNANA
18:00 26.6 LegendMM 50 19 7 101.05 LegendNANA
19:00 24.2 LegendMM 57 14 19 101.08 LegendNANA
20:00 22.3 LegendMM 62 14 18 101.17 LegendNANA
21:00 22.0 LegendMM 60 15 17 101.21 LegendNANA
22:00 21.5 LegendMM 59 16 16 101.24 LegendNANA
23:00 20.2 LegendMM 58 16 16 101.25 LegendNANA

Notes on Data Quality.

Legend
  • E = Estimated
  • M = Missing
  • NA = Not Available
  • ‡ = Partner data that is not subject to review by the National Climate Archives